Satellite: SRMSAT Catalog number: 37841 Epoch time: 12137.52393186 Element set: 0151 Inclination: 019.9742 deg RA of node: 194.3167 deg Eccentricity: 0.0012179 Arg of perigee: 203.8569 deg Mean anomaly: 156.1295 deg Mean motion: 14.10137841 rev/day Decay rate: 2.64e-06 rev/day^2 Epoch rev: 03072 Checksum: 289
Satellite: RAX-2 Catalog number: 37853 Epoch time: 12137.88481939 Element set: 178 Inclination: 101.7150 deg RA of node: 163.8223 deg Eccentricity: 0.0248083 Arg of perigee: 080.1559 deg Mean anomaly: 282.7554 deg Mean motion: 14.79705416 rev/day Decay rate: 6.762e-05 rev/day^2 Epoch rev: 2976 Checksum: 332
Satellite: AUBIESAT Catalog number: 37854 Epoch time: 12138.59098777 Element set: 180 Inclination: 101.7177 deg RA of node: 165.0654 deg Eccentricity: 0.0249372 Arg of perigee: 077.7647 deg Mean anomaly: 285.1356 deg Mean motion: 14.80074655 rev/day Decay rate: 6.958e-05 rev/day^2 Epoch rev: 2986 Checksum: 350
Satellite: HRBE Catalog number: 37855 Epoch time: 12138.53420446 Element set: 178 Inclination: 101.7191 deg RA of node: 164.9431 deg Eccentricity: 0.0249454 Arg of perigee: 077.7645 deg Mean anomaly: 285.1367 deg Mean motion: 14.79944021 rev/day Decay rate: 6.843e-05 rev/day^2 Epoch rev: 2985 Checksum: 325
Satellite: RS-39 Catalog number: 38051 Epoch time: 12138.71690972 Element set: 341 Inclination: 051.6301 deg RA of node: 304.9892 deg Eccentricity: 0.0011262 Arg of perigee: 288.9056 deg Mean anomaly: 258.5437 deg Mean motion: 15.23770008 rev/day Decay rate: 8.905e-05 rev/day^2 Epoch rev: 1732 Checksum: 305
Satellite: E-STAR Catalog number: 38079 Epoch time: 12138.81720291 Element set: 232 Inclination: 069.4922 deg RA of node: 025.0027 deg Eccentricity: 0.0751799 Arg of perigee: 286.0969 deg Mean anomaly: 065.8674 deg Mean motion: 14.13365848 rev/day Decay rate: 2.3095e-04 rev/day^2 Epoch rev: 1329 Checksum: 326
Satellite: GOLIAT Catalog number: 38085 Epoch time: 12138.71750321 Element set: 217 Inclination: 069.4961 deg RA of node: 025.3976 deg Eccentricity: 0.0755039 Arg of perigee: 286.3573 deg Mean anomaly: 065.5871 deg Mean motion: 14.12432531 rev/day Decay rate: 2.3106e-04 rev/day^2 Epoch rev: 1327 Checksum: 295
/EX
participants (1)
-
Ray Hoad